Skip Page Navigation
NASA JPL Caltech
NASA Logo - Jet Propulsion Laboratory + View the NASA Portal
+ Center for Near-Earth Object Studies
JPL Home Earth Solar System Stars & Galaxies Technology
JPL Solar System Dynamics
BODIES ORBITS EPHEMERIDES TOOLS PHYSICAL DATA DISCOVERY FAQ SITE MAP
JPL Small-Body Database Browser
Search: [ help ]  
413747 (2006 CP5)
Classification: Main-belt Asteroid          SPK-ID: 2413747
Ephemeris | Orbit Diagram | Orbital Elements | Mission Design | Physical Parameters | Discovery Circumstances ]

[ show orbit diagram ]
Orbital Elements at Epoch 2459000.5 (2020-May-31.0) TDB
Reference: JPL 12 (heliocentric ecliptic J2000)
 Element Value Uncertainty (1-sigma)   Units 
e .1328875825701384 9.3327e-08  
a 2.998450558894782 4.3404e-08 au
q 2.599993712667174 2.9985e-07 au
i 7.921146005592251 6.0001e-06 deg
node 271.726165459003 6.5734e-05 deg
peri 106.6522592582185 7.1935e-05 deg
M 11.67641599719129 2.8749e-05 deg
tp 2458938.989278148638
(2020-Mar-30.48927815)
0.00015128 TDB
period 1896.460341239711
5.19
4.1178e-05
1.127e-07
d
yr
n .1898273284031181 4.1218e-09 deg/d
Q 3.39690740512239 4.9172e-08 au
  Orbit Determination Parameters
   # obs. used (total)      125  
   data-arc span      6827 days (18.69 yr)  
   first obs. used      2001-02-20  
   last obs. used      2019-10-31  
   planetary ephem.      DE431  
   SB-pert. ephem.      SB431-N16  
   condition code      0  
   norm. resid. RMS      .56204  
   source      ORB  
   producer      Otto Matic  
   solution date      2019-Nov-08 14:38:31  

Additional Information
 Earth MOID = 1.61645 au 
 Jupiter MOID = 2.13182 au 
 T_jup = 3.226 
[ show covariance matrix ]

Ephemeris | Orbit Diagram | Orbital Elements | Mission Design | Physical Parameters | Discovery Circumstances ]

Physical Parameter Table
Parameter Symbol Value Units Sigma Reference Notes
absolute magnitude H 16.3   n/a MPO495100  

413747 (2006 CP5)          Discovered 2006-Jan-09 by Spacewatch at Kitt Peak
Reference: Last Updated: 2014-11-10

Alternate Designations
 2006 CP5 = 2014 QX439 
Ephemeris | Orbit Diagram | Orbital Elements | Mission Design | Physical Parameters | Discovery Circumstances ]
ABOUT SSD CREDITS/AWARDS PRIVACY/COPYRIGHT GLOSSARY LINKS
FirstGov 2020-Jul-12 20:50 UT
(server date/time)  
NASA Home Page
Site Manager:   Ryan S. Park
Webmaster  Alan B. Chamberlin